082  
ASUS42 KFFC 050503  
RWRGA  
WEATHER ROUNDUP FOR GEORGIA  
NATIONAL WEATHER SERVICE PEACHTREE CITY GA  
1200 AM EST TUE MAR 05 2024  
 
NOTE: "FAIR" INDICATES FEW OR NO CLOUDS BELOW 12,000 FEET WITH NO  
SIGNIFICANT WEATHER AND/OR S TO VISIBILITY
.  
 
* = USE WITH CAUTION. THE STATIONS MARKED WITH AN ASTERISK MAY NOT  
REPORT WEATHER SUCH AS PRECIPITATION, FOG, OR THUNDER AND ARE NOT  
QUALITY CONTROLLED BY NWS.  
 
THE REMARK "TC" DENOTES TEMPERATURE READING IN DEGREES CELSIUS.  
 
GAZ001>058-050600-  
NORTH GEORGIA  
 
CITY SKY/WX TMP DP RH WIND PRES REMARKS
 
ATLANTA MOCLDY 58 55 90 E3 30.09F TC 14  
ATHENS PTCLDY 55 54 96 E7 30.12R TC 13  
CHAMBLEE MOCLDY 53 52 96 CALM 30.09F FOG TC 12  
PEACHTREE CITY MOCLDY 54 52 93 CALM 30.09F FOG TC 12  
ROME CLOUDY 56 54 93 CALM 30.08S TC 13  
WEST ATLANTA MOCLDY 53 52 96 CALM 30.09F TC 12  
GAINESVILLE PTCLDY 57 54 89 CALM 30.13S TC 14  
CARTERSVILLE CLOUDY 55 55 100 E3 30.10S TC 13  
 
 
CITY SKY/WX TMP DP RH WIND PRES REMARKS
 
DALTON* MOCLDY 57 57 100 CALM 30.08F TC 14  
LAWRENCEVILLE* MOCLDY 53 53 100 CALM 30.11F TC 12  
MARIETTA CLOUDY 54 53 96 CALM 30.08F FOG TC 12  
KENNESAW* CLOUDY 56 55 97 N3 30.11F TC 13  
CANTON* CLOUDY 57 55 94 E3 30.11F TC 14  
BLAIRSVILLE* MOCLDY 56 51 82 NE3 30.14S TC 13  

 
 
GAZ059>098-102>109-050600-  
CENTRAL GEORGIA  
 
CITY SKY/WX TMP DP RH WIND PRES REMARKS
 
AUGUSTA-BUSH CLEAR 54 51 90 CALM 30.11R TC 12  
AUGUSTA-DANIEL CLEAR 63 53 70 E3 30.12S TC 17  
COLUMBUS CLOUDY 62 58 86 E5 30.07S TC 17  
MACON MOCLDY 55 55 100 CALM 30.09S TC 13  
ROBINS AFB MOCLDY 59 56 90 CALM 30.08S TC 15  
 
 
CITY SKY/WX TMP DP RH WIND PRES REMARKS
 
LAGRANGE* CLOUDY 58 57 94 CALM 30.09S TC 15  
SYLVANIA* CLEAR 55 54 98 CALM 30.13S TC 13  
MILLEDGEVILLE* MOCLDY 55 55 100 CALM 30.09F TC 13  

 
 
GAZ099>101-110>166-050600-  
SOUTH GEORGIA  
 
CITY SKY/WX TMP DP RH WIND PRES REMARKS
 
SAVANNAH PTCLDY 55 54 96 CALM 30.12S TC 13  
VALDOSTA CLOUDY 66 60 81 E6 30.08S TC 19  
ALMA MOCLDY 61 59 93 SE3 30.10S TC 16  
ST SIMONS FOG 57 57 100 E3 30.10F VSB<1/4 TC 14  
FT STEWART CLEAR 55 55 99 CALM 30.07F FOG TC 13  
ALBANY CLOUDY 65 59 81 SE3 30.09S TC 18  
HUNTER AFB CLEAR 56 55 95 CALM 30.08S FOG TC 14  
MOODY AFB CLOUDY 64 60 86 SE6 30.08S TC 18  
BRUNSWICK FOG 57 55 94 SE3 30.11F VSB 1/4 TC 14  
 
 
CITY SKY/WX TMP DP RH WIND PRES REMARKS
 
BAINBRIDGE* CLOUDY 65 61 85 E6 30.06F TC 19  
MOULTRIE* CLOUDY 64 62 93 SE6 30.09S TC 18  
VIDALIA* CLEAR 63 59 88 CALM 30.11S TC 17  
WAYCROSS* MOCLDY 60 59 96 CALM 30.11R TC 16  
DOUGLAS* CLOUDY 61 59 93 CALM 30.12S TC 16  

 
 
 
CLICK HERE TO GO TO PREVIOUS BULLETINS.

The Nexlab GA Page Main Text Page